TimeCDT,TemperatureF,Dew PointF,Humidity,Sea Level PressureIn,VisibilityMPH,Wind Direction,Wind SpeedMPH,Gust SpeedMPH,PrecipitationIn,Events,Conditions,WindDirDegrees,DateUTC
12:53 AM,77.0,63.0,62,29.63,10.0,SSE,21.9,29.9,N/A,,Clear,160,2013-05-28 05:53:00
1:53 AM,75.9,63.0,64,29.62,10.0,SSE,13.8,24.2,N/A,,Clear,160,2013-05-28 06:53:00
2:53 AM,75.9,63.0,64,29.60,10.0,SSE,17.3,-,N/A,,Clear,150,2013-05-28 07:53:00
3:53 AM,75.0,63.0,66,29.57,10.0,SSE,17.3,23.0,N/A,,Clear,150,2013-05-28 08:53:00
4:53 AM,75.0,62.1,64,29.57,10.0,SSE,15.0,-,N/A,,Clear,150,2013-05-28 09:53:00
5:53 AM,73.9,62.1,66,29.57,10.0,SSE,12.7,-,N/A,,Clear,150,2013-05-28 10:53:00
6:53 AM,73.0,64.0,73,29.60,10.0,SSE,15.0,-,N/A,,Clear,150,2013-05-28 11:53:00
7:53 AM,72.0,64.9,78,29.60,10.0,SSE,15.0,-,N/A,,Clear,150,2013-05-28 12:53:00
8:53 AM,73.0,64.9,76,29.62,10.0,SSE,16.1,25.3,N/A,,Clear,160,2013-05-28 13:53:00
9:53 AM,75.0,64.9,71,29.63,10.0,SE,18.4,25.3,N/A,,Clear,140,2013-05-28 14:53:00
10:53 AM,78.1,63.0,60,29.62,10.0,SSE,20.7,27.6,N/A,,Clear,150,2013-05-28 15:53:00
11:53 AM,79.0,63.0,58,29.62,10.0,SE,20.7,27.6,N/A,,Clear,140,2013-05-28 16:53:00
12:53 PM,84.0,63.0,49,29.59,10.0,SSE,17.3,27.6,N/A,,Clear,150,2013-05-28 17:53:00
1:53 PM,86.0,62.1,44,29.58,10.0,SSE,17.3,24.2,N/A,,Clear,150,2013-05-28 18:53:00
2:53 PM,88.0,61.0,40,29.56,10.0,SSE,12.7,18.4,N/A,,Clear,150,2013-05-28 19:53:00
3:53 PM,91.0,61.0,36,29.53,10.0,ESE,13.8,23.0,N/A,,Clear,120,2013-05-28 20:53:00
4:53 PM,91.0,59.0,34,29.49,10.0,SE,17.3,23.0,N/A,,Clear,130,2013-05-28 21:53:00
5:53 PM,89.1,62.1,40,29.49,10.0,SE,23.0,33.4,N/A,,Clear,130,2013-05-28 22:53:00
6:53 PM,84.9,62.1,46,29.48,10.0,SE,25.3,32.2,N/A,,Clear,130,2013-05-28 23:53:00
7:53 PM,82.9,62.1,49,29.49,10.0,SE,23.0,29.9,N/A,,Clear,140,2013-05-29 00:53:00
8:53 PM,80.1,63.0,56,29.51,10.0,SE,21.9,32.2,N/A,,Clear,140,2013-05-29 01:53:00
9:53 PM,79.0,63.0,58,29.52,10.0,SE,21.9,29.9,N/A,,Clear,140,2013-05-29 02:53:00
10:53 PM,78.1,63.0,60,29.53,10.0,SE,20.7,28.8,N/A,,Clear,140,2013-05-29 03:53:00
11:53 PM,78.1,63.0,60,29.53,10.0,SSE,21.9,31.1,N/A,,Clear,150,2013-05-29 04:53:00